map of MLX home
Great Circle Mapper logo
MLX - Airport
Location
City:  Malatya, Turkey
Name:Erhac
ICAO / IATA:LTAT / MLX

Details
Type:Airport (Aerodrome, Airfield)
Use:Public/Civil, Military
Latitude:3826'07"N (38.435347)
Longitude:3805'28"E (38.091006)
Datum:WGS 1984
Elevation:2828 ft (862 m)
Variation:5.4E (WMM2010 magnetic declination)
Runways:1
Longest:10990 × 148 ft (3350 × 45 m), paved

Time
Time Zone:UTC+2 (DST+3)
Local Time:

Weather
METAR:LTAT 211820Z 01006KT 4000 -RA BR BKN018 BKN033 08/07 Q1010 NOSIG
TAF:LTAT 202240Z 2100/2124 VRB02KT 6000 BKN025
BECMG 2101/2102 4000 BR
TEMPO 2106/2110 -RA BKN010 OVC030
BECMG 2110/2111 -RA BKN010 OVC030

Related Locations
Nearby:
Farthest:NTAV: 11373 mi / 18303 km
Raivavae, Tubuai Islands, Austral Islands, PF

Find:

   beyond  
but within

Other Information
Maps:
NOTAMs:
Links:
Sources:

  
flag of Turkey   

Sectional Chart

Flight Planning
at skyvector.com

Satellite Image

Google Maps Satellite View

 

Copyright © 2004-2014 Karl L. Swartz. All rights reserved.
The Great Circle Mapper name and logo are trademarks of the Great Circle Mapper.
All other trademarks mentioned herein belong to their respective owners.
Please see credits for attibutions and further copyright information.

  Follow gcmap on Facebook Follow gcmap on Twitter

hCard Microformat

Geo Microformat